This demonstration page uses our WeatherBlox Daily Observations layout. Learn more.

Left ArrowRight Arrow

44.89941, -97.11507

Hourly Observations for May 27, 2019

Temp ( °F °C ) Dew Point ( °F °C ) Humidity (%) Winds ( mph kmh ) Pressure ( in mb ) Visibility ( mi km ) Precip ( " mm )
12:53 am 00:53 Clear 60 15.6 50 10 70 70 ENE 14 22 29.91 1013 10 16 0.00 0.00
1:53 am 01:53 Mostly Cloudy 60 15.6 50 10 70 70 E 13 20 29.91 1013 10 16 0.00 0.00
2:53 am 02:53 Mostly Clear 59 15 49 9.4 69 69 E 10 17 29.88 1012 10 16 0.00 0.00
3:53 am 03:53 Cloudy with Light Rain 58 14.4 50 10 75 75 E 8 13 29.86 1011 10 16 0.00 0.03
4:53 am 04:53 Cloudy 57 13.9 51 10.6 81 81 E 7 11 29.83 1010 10 16 0.00 0.03
5:53 am 05:53 Cloudy 56 13.3 51 10.6 84 84 ENE 8 13 29.83 1010 10 16 0.00 0.00
6:53 am 06:53 Cloudy 55 12.8 51 10.6 87 87 ENE 12 19 29.83 1010 10 16 0.00 0.00
7:53 am 07:53 Cloudy with Light Rain 55 12.8 52 11.1 90 90 NE 13 20 29.83 1010 10 16 0.01 0.25
8:00 am 08:00 Cloudy with Light Rain 55 12.8 52 11.1 90 90 ENE 10 17 29.83 1010 10 16 0.00 0.03
8:17 am 08:17 Cloudy with Light Rain 55 12.8 52 11.1 90 90 ENE 12 19 29.82 1010 10 16 0.00 0.03
8:53 am 08:53 Cloudy with Light Rain 55 12.8 53 11.7 93 93 NE 17 28 29.81 1010 10 16 0.01 0.25
9:05 am 09:05 Cloudy with Light Rain 54 12.2 52 11.1 93 93 NE 16 26 29.81 1010 9 14 0.00 0.03
9:53 am 09:53 Cloudy 53 11.7 51 10.6 93 93 NE 15 24 29.83 1010 10 16 0.00 0.03
10:53 am 10:53 Cloudy with Light Rain 51 10.6 49 9.4 92 92 NNE 17 28 29.84 1010 6 10 0.03 0.76
11:53 am 11:53 Cloudy with Light Rain 52 11.1 50 10 93 93 NE 18 30 29.84 1011 10 16 0.03 0.76
12:53 pm 12:53 Cloudy 55 12.8 52 11.1 90 90 NE 20 31 29.83 1010 10 16 0.01 0.25
1:53 pm 13:53 Cloudy 55 12.8 51 10.6 87 87 NNE 18 30 29.83 1010 10 16 0.00 0.00
2:53 pm 14:53 Cloudy 55 12.8 51 10.6 87 87 NNE 10 17 29.85 1011 10 16 0.00 0.00
3:53 pm 15:53 Cloudy 58 14.4 52 11.1 81 81 NE 14 22 29.83 1010 10 16 0.00 0.00
4:15 pm 16:15 Cloudy 59 15 52 11.1 78 78 NE 13 20 29.81 1009 10 16 0.00 0.00
4:53 pm 16:53 Cloudy 61 16.1 52 11.1 72 72 NE 17 28 29.81 1010 10 16 0.00 0.00
5:53 pm 17:53 Mostly Cloudy 60 15.6 52 11.1 75 75 NE 12 19 29.82 1010 10 16 0.00 0.00
6:49 pm 18:49 Cloudy 59 15 52 11 77 77 ENE 10 17 29.82 1010 10 16 0.00 0.00
6:53 pm 18:53 Cloudy 59 15 50 10 72 72 NE 10 17 29.84 1010 10 16 0.00 0.00
7:53 pm 19:53 Cloudy 58 14.4 51 10.6 78 78 NE 7 11 29.86 1011 10 16 0.00 0.00
8:02 pm 20:02 Cloudy 58 14.4 51 10.6 78 78 ENE 6 9 29.84 1011 10 16 0.00 0.00
8:53 pm 20:53 Cloudy 57 13.9 50 10 78 78 ENE 7 11 29.86 1011 10 16 0.00 0.00
9:53 pm 21:53 Cloudy 56 13.3 50 10 81 81 E 5 7 29.88 1012 10 16 0.00 0.00
10:42 pm 22:42 Cloudy 56 13.3 50 10 81 81 ENE 6 9 29.86 1011 10 16 0.00 0.00
10:51 pm 22:51 Cloudy 55 13 50 10 82 82 NE 9 15 29.85 1011 10 16 0.00 0.00
10:53 pm 22:53 Cloudy 55 12.8 50 10 83 83 ENE 8 13 29.87 1011 10 16 0.00 0.00
11:36 pm 23:36 Cloudy 55 12.8 50 10 83 83 ENE 8 13 29.86 1011 10 16 0.00 0.00
11:53 pm 23:53 Cloudy 55 12.8 49 9.4 80 80 E 9 15 29.89 1012 10 16 0.00 0.00

Powered by AerisWeather